Printer-friendly version

IAU Minor Planet Center

Minor Planet Center

MPEC 2000-W33: 2000 WJ10

The following Minor Planet Electronic Circular may be linked-to from your own Web pages, but must not otherwise be redistributed electronically.


Read MPEC 2000-W32 Read MPEC 2000-W34


M.P.E.C. 2000-W33                                Issued 2000 Nov. 24, 21:28 UT

     The Minor Planet Electronic Circulars contain information on unusual
         minor planets and routine data on comets.  They are published
   on behalf of Commission 20 of the International Astronomical Union by the
          Minor Planet Center, Smithsonian Astrophysical Observatory,
                          Cambridge, MA 02138, U.S.A.

             Prepared using the Tamkin Foundation Computer Network

                              MPC@CFA.HARVARD.EDU
          URL http://cfa-www.harvard.edu/iau/mpc.html  ISSN 1523-6714

                                   2000 WJ10

Observations:
     K00W10J* C2000 11 19.32755 02 56 17.64 +09 51 00.5          18.2 R      699
     K00W10J  C2000 11 19.35085 02 56 14.60 +09 52 15.6                      699
     K00W10J  C2000 11 19.37415 02 56 11.51 +09 53 32.0                      699
     K00W10J  C2000 11 19.39747 02 56 08.49 +09 54 48.4                      699
     K00W10J  C2000 11 19.80546 02 55 21.66 +10 17 12.0                      557
     K00W10J  C2000 11 19.80693 02 55 21.46 +10 17 16.3                      557
     K00W10J  C2000 11 19.80840 02 55 21.27 +10 17 21.2          18.8 V      557
     K00W10J  C2000 11 20.12042 02 54 43.14 +10 35 00.0          18.5 R      837
     K00W10J  C2000 11 20.13708 02 54 40.89 +10 35 57.1                      837
     K00W10J  C2000 11 20.15228 02 54 38.79 +10 36 47.6          18.7 R      837
     K00W10J  C2000 11 22.76161 02 49 12.25 +13 09 29.5          18.1 R      046
     K00W10J  C2000 11 22.76277 02 49 12.07 +13 09 33.5                      046
     K00W10J  C2000 11 22.76391 02 49 11.94 +13 09 37.4                      046
     K00W10J  C2000 11 22.76610 02 49 11.59 +13 09 45.9                      046
     K00W10J  C2000 11 22.76709 02 49 11.49 +13 09 49.3                      046
     K00W10J  C2000 11 22.76981 02 49 11.14 +13 09 59.6          17.8 R      046
     K00W10J  C2000 11 23.17778 02 48 18.20 +13 35 10.3          18.9 R      853
     K00W10J  C2000 11 23.17911 02 48 18.03 +13 35 15.3          18.9 R      853
     K00W10J  C2000 11 23.17986 02 48 17.92 +13 35 18.1          19.1 R      853
     K00W10J  C2000 11 23.89091 02 46 44.56 +14 19 26.0                      557
     K00W10J  C2000 11 23.89226 02 46 44.33 +14 19 31.7                      557
     K00W10J  C2000 11 23.89361 02 46 44.16 +14 19 36.2                      557
     K00W10J  C2000 11 23.89497 02 46 43.89 +14 19 41.4                      557

Observer details:
046 Klet.  Observer M. Tichy.  0.57-m f/5.2 reflector + CCD.
557 Ondrejov.  Observers L. Sarounova, P. Kusnirak.  0.65-m f/3.6 reflector
    + CCD.
699 Lowell Observatory-LONEOS.  Observer M. E. Van Ness.  Measurer B. W. Koehn.
    0.59-m LONEOS Schmidt + CCD.
837 Jupiter.  Observer L. Sikes.  Measurer B. Segal.  0.36-m f/11
    Schmidt-Cassegrain + CCD.
853 Biosphere 2 Observatory.  Observer G. J. Garradd.  0.6-m f/8.1 reflector
    + CCD.

Orbital elements:
2000 WJ10
Epoch 2000 Nov. 12.0 TT = JDT 2451860.5                 Williams
M 339.94712              (2000.0)            P               Q
n   0.35132918     Peri.   41.64006     -0.17338909     -0.95723514
a   1.9891150      Node    59.57205     +0.81763679     -0.27100169
e   0.4396839      Incl.   15.58043     +0.54900483     +0.10128659
P   2.81           H   20.7           G   0.15
From 23 observations 2000 Nov. 19-23.

Ephemeris:
2000 WJ10                a,e,i = 1.99, 0.44, 16                  q = 1.1145
Date    TT    R. A. (2000) Decl.     Delta      r     Elong.  Phase     V
2000 11 22    02 50.81   +12 23.9    0.242    1.221   163.6    13.2    18.8
2000 11 27    02 39.83   +17 42.9    0.228    1.201   157.9    18.0    18.8
2000 12 02    02 28.39   +23 35.8    0.219    1.183   151.1    23.8    18.9
2000 12 07    02 17.04   +29 47.5    0.216    1.166   143.9    29.9    19.0
2000 12 12    02 06.32   +36 00.8    0.216    1.152   136.9    35.7    19.1
2000 12 17    01 56.77   +42 00.7    0.220    1.140   130.5    41.0    19.3
2000 12 22    01 48.94   +47 37.0    0.228    1.130   124.9    45.6    19.5
2000 12 27    01 43.42   +52 45.7    0.238    1.122   120.2    49.2    19.7
2001 01 01    01 40.85   +57 26.9    0.249    1.117   116.5    52.0    19.8
2001 01 06    01 41.92   +61 42.7    0.262    1.115   113.7    53.9    20.0
2001 01 11    01 47.56   +65 35.4    0.276    1.115   111.6    55.1    20.1

2001 01 21    02 18.9    +72 13.4    0.306    1.123   109.4    55.7    20.4
2001 01 31    03 35.7    +76 56.0    0.337    1.141   109.3    54.6    20.6
2001 02 10    05 45.7    +78 05.3    0.369    1.169   110.6    52.2    20.8
2001 02 20    07 39.8    +74 50.3    0.405    1.204   112.6    49.3    21.0
2001 03 02    08 44.61   +69 00.4    0.447    1.247   114.9    46.2    21.2
2001 03 12    09 21.91   +62 10.1    0.496    1.294   116.7    43.3    21.4
2001 03 22    09 46.82   +55 04.5    0.555    1.346   117.6    41.0    21.7
2001 04 01    10 06.16   +48 07.4    0.625    1.402   117.4    39.3    22.0

Gareth V. Williams           (C) Copyright 2000 MPC           M.P.E.C. 2000-W33

Read MPEC 2000-W32 Read MPEC 2000-W34


Our Web policy. Index to the CBAT/MPC/ICQ pages.


Valid HTML 4.01!